                ,  1.165,  1.315,  1.465,  1.615,  1.765,  1.915,  2.065,  2.215,  2.365,  2.515,  2.665,  2.815,  2.965,  3.115,  3.265,  3.415,  3.565,  3.715,  3.865,  4.015,  4.165,  4.315,  4.465,  4.615,  4.765,  4.915,  5.065,  5.215,  5.365,  5.515
2004/03/03 00:00,   -5.1,   -5.3,  999.0,   -1.3,   -1.2,   -1.0,   -0.9,  999.0,   -4.7,   -4.8,   -4.6,   -4.6,   -4.7,   -4.6,   -4.5,   -4.6,   -4.5,   -4.6,   -4.5,   -4.7,   -4.7,   -3.6,  999.0,   -1.2,   -1.3,   -1.3,   -1.4,   -1.2,   -0.9,   -1.1
2004/03/03 00:10,  999.0,   -1.5,   -1.2,   -1.3,   -1.4,   -1.2,   -1.0,   -0.8,  999.0,   -5.4,   -5.5,   -5.5,   -5.8,   -5.7,   -5.9,   -6.0,   -6.2,   -6.2,   -6.0,   -6.1,   -6.0,   -4.4,  999.0,   -1.5,   -1.4,   -1.3,   -1.3,   -1.3,   -1.1,   -0.9
2004/03/03 00:20,   -2.1,   -2.1,   -1.9,   -1.6,   -1.9,   -1.5,  999.0,  999.0,   -6.2,   -5.9,   -5.7,   -5.6,   -5.6,   -5.5,   -5.8,   -5.7,   -5.6,   -5.7,   -5.9,   -5.8,   -5.7,   -4.0,  999.0,   -1.2,   -1.1,   -1.1,   -1.1,   -1.1,   -0.9,   -1.0
2004/03/03 00:30,   -2.5,   -2.4,   -2.0,   -2.5,   -2.6,   -2.4,   -2.1,   -1.8,   -1.8,  999.0,   -4.9,   -4.7,   -4.6,   -4.6,   -4.3,   -4.0,   -4.2,   -4.2,   -4.5,   -4.3,   -4.3,   -3.4,   -1.7,   -1.0,   -1.2,   -1.3,   -1.2,   -1.1,   -0.6,   -0.4
2004/03/03 00:40,   -2.8,   -2.4,   -2.7,   -2.6,   -2.5,   -2.2,   -2.2,   -2.4,   -2.0,   -2.4,   -2.5,   -3.0,   -3.0,   -2.4,   -1.1,   -2.3,   -2.9,   -2.1,   -4.4,  999.0,   -3.7,   -3.3,   -1.9,   -1.1,   -1.0,   -1.3,   -1.3,   -1.2,   -1.1,   -0.8
2004/03/03 00:50,   -2.0,   -1.9,   -1.9,   -1.7,   -1.7,   -1.6,   -1.7,   -1.8,   -2.2,   -2.4,   -3.6,   -3.5,   -3.5,   -3.5,   -0.1,   -0.9,  999.0,    0.5,  999.0,  999.0,  999.0,  999.0,   -1.4,   -0.5,   -0.8,   -0.8,   -0.9,   -0.8,   -0.6,   -0.6
2004/03/03 01:00,   -2.2,   -2.0,   -2.0,   -1.8,   -1.7,   -1.5,   -1.3,   -1.3,   -1.3,   -3.2,   -2.4,   -3.3,  999.0,    0.2,    0.1,    0.3,   -0.1,    0.3,    0.0,  999.0,  999.0,  999.0,   -1.4,   -0.7,   -0.9,   -1.1,   -0.9,   -0.8,   -0.9,   -0.7
2004/03/03 01:10,   -2.2,   -2.0,   -1.9,   -1.8,   -1.7,   -1.8,   -2.0,   -2.5,   -2.9,   -2.8,   -3.2,   -3.2,   -1.2,   -0.1,   -0.2,   -0.5,   -0.3,   -0.2,   -0.0,  999.0,  999.0,    0.1,   -0.4,   -0.2,   -0.7,   -0.9,   -0.8,   -0.5,   -0.0,   -0.1
2004/03/03 01:20,   -2.0,   -1.9,   -1.8,   -1.5,   -1.4,   -1.1,   -0.9,   -0.7,  999.0,  999.0,  999.0,  999.0,   -0.1,    0.0,    0.1,    0.1,   -0.2,   -0.1,   -0.2,  999.0,  999.0,    0.1,   -0.1,    0.0,   -0.0,   -0.5,   -0.4,  999.0,    0.0,   -0.3
2004/03/03 01:30,   -1.8,   -1.6,   -1.5,   -1.4,   -1.2,   -1.1,   -1.3,   -1.2,   -0.8,   -0.7,  999.0,  999.0,   -0.2,    0.2,    0.3,    0.1,  999.0,   -0.0,   -0.2,   -0.2,  999.0,    0.2,    0.1,    0.1,   -0.2,  999.0,  999.0,  999.0,    0.1,    0.1
2004/03/03 01:40,   -1.5,   -1.2,   -1.1,   -0.7,   -0.3,   -0.2,   -0.1,   -0.2,  999.0,  999.0,  999.0,  999.0,   -0.2,    0.0,   -0.1,   -0.2,  999.0,    0.1,   -0.1,   -0.0,  999.0,    0.1,    0.0,    0.1,    0.1,  999.0,  999.0,  999.0,    0.0,   -0.1
2004/03/03 01:50,   -0.6,   -0.3,   -0.4,   -0.1,   -0.3,   -0.0,   -0.3,   -0.3,  999.0,  999.0,  999.0,  999.0,   -0.1,   -0.3,   -0.3,    0.1,  999.0,    0.0,    0.0,  999.0,    0.0,   -0.1,  999.0,   -0.0,   -0.1,  999.0,  999.0,  999.0,  999.0,  999.0
2004/03/03 02:00,    0.0,   -0.1,   -0.0,    0.1,    0.0,    0.4,    0.9,  999.0,  999.0,  999.0,  999.0,  999.0,    0.2,    0.3,    0.2,    0.1,    0.2,    0.4,    0.1,  999.0,  999.0,   -0.0,   -0.1,    0.0,   -0.2,  999.0,  999.0,  999.0,   -0.3,   -0.2
2004/03/03 02:10,   -0.6,   -0.6,   -0.4,   -0.3,    0.0,   -0.3,   -0.3,   -0.6,   -1.7,  999.0,  999.0,   -0.2,   -0.0,   -0.0,    0.1,   -0.3,   -0.1,   -0.8,   -0.4,  999.0,  999.0,   -0.2,   -0.7,   -0.6,   -0.5,   -1.1,  999.0,   -1.2,   -0.9,   -1.2
2004/03/03 02:20,   -1.0,   -1.2,   -1.2,   -0.8,   -0.5,   -0.3,   -0.5,   -0.3,   -0.4,   -0.4,   -0.4,   -0.1,   -0.0,    0.3,   -0.4,   -0.6,   -1.9,   -1.3,   -2.1,   -1.0,   -1.7,   -2.2,   -1.2,   -1.3,   -0.5,   -1.2,   -1.5,  999.0,   -0.2,    0.0
2004/03/03 02:30,   -2.3,   -2.1,   -1.9,   -1.7,   -1.4,   -1.4,   -1.3,   -1.2,   -1.2,   -1.1,   -1.2,   -0.8,   -0.6,   -0.6,   -0.2,   -0.2,    0.1,  999.0,  999.0,  999.0,  999.0,   -0.6,   -0.0,   -0.3,   -0.0,  999.0,  999.0,  999.0,    0.0,  999.0
2004/03/03 02:40,   -1.4,   -1.3,   -1.3,   -1.0,   -1.3,   -1.1,   -1.2,   -1.1,   -1.2,   -0.9,   -0.9,   -0.4,   -0.1,   -0.3,   -0.1,   -0.5,   -1.3,   -2.0,   -0.5,   -0.0,  999.0,   -0.2,   -0.0,   -0.0,   -0.1,   -0.2,  999.0,   -0.2,   -0.1,    0.2
2004/03/03 02:50,   -1.2,   -1.0,   -1.0,   -0.8,   -0.9,   -1.1,   -1.1,   -0.9,   -0.7,   -0.6,  999.0,  999.0,   -0.1,   -0.1,   -0.2,    0.0,    0.2,    0.0,    0.1,    0.0,   -0.1,   -0.1,    0.0,    0.1,   -0.0,  999.0,  999.0,    0.1,   -0.0,   -0.0
2004/03/03 03:00,   -1.6,   -1.4,   -1.3,   -1.0,   -0.7,   -0.7,   -0.8,   -0.7,   -0.5,  999.0,  999.0,  999.0,   -0.3,    0.1,   -0.0,    0.2,    0.0,   -0.0,    0.1,    0.1,   -0.0,    0.2,    0.1,    0.0,    0.0,  999.0,  999.0,  999.0,    0.0,    0.1
2004/03/03 03:10,   -1.8,   -1.6,   -1.4,   -1.2,   -0.9,   -0.8,   -0.6,   -0.5,   -0.3,  999.0,  999.0,    0.0,    0.0,   -0.0,   -0.0,    0.0,    0.2,   -0.0,    0.0,   -0.1,    0.1,    0.1,   -0.1,   -0.1,    0.0,  999.0,  999.0,  999.0,    0.1,   -0.1
2004/03/03 03:20,   -1.3,   -1.4,   -1.2,   -1.1,   -0.8,   -0.7,   -0.7,   -0.4,  999.0,  999.0,  999.0,   -0.3,   -0.1,    0.0,    0.0,    0.1,   -0.0,   -0.1,   -0.2,    0.3,    0.1,   -0.0,  999.0,   -0.1,   -0.0,  999.0,  999.0,  999.0,    0.1,    0.1
2004/03/03 03:30,   -1.1,   -1.1,   -1.0,   -0.8,   -0.8,   -1.0,   -0.5,  999.0,  999.0,  999.0,  999.0,  999.0,   -0.2,   -0.0,    0.0,  999.0,  999.0,   -0.1,   -0.1,  999.0,   -0.0,    0.1,  999.0,    0.1,    0.0,   -0.2,  999.0,  999.0,    0.0,    0.0
2004/03/03 03:40,    0.2,   -0.2,   -0.2,   -0.1,  999.0,  999.0,   -0.3,   -0.1,  999.0,  999.0,   -0.4,   -0.2,    0.1,   -0.1,    0.1,   -0.1,    0.1,   -0.0,   -0.0,    0.1,  999.0,    0.1,  999.0,    0.1,    0.1,  999.0,  999.0,  999.0,    0.0,    0.2
2004/03/03 03:50,    0.0,   -0.1,    0.0,  999.0,    0.3,    0.2,  999.0,    0.7,  999.0,  999.0,    0.1,    0.1,    0.2,    0.2,    0.2,   -0.0,    0.1,   -0.0,   -0.0,  999.0,  999.0,    0.0,  999.0,  999.0,   -0.1,  999.0,  999.0,  999.0,    0.0,   -0.1
2004/03/03 04:00,    0.2,  999.0,    0.2,    0.0,   -0.3,  999.0,  999.0,  999.0,  999.0,  999.0,    0.1,   -0.2,   -0.4,  999.0,    0.2,    0.1,  999.0,   -0.0,   -0.0,   -0.1,    0.3,   -0.2,    0.1,    0.1,   -0.1,   -0.1,  999.0,  999.0,    0.1,    0.1
2004/03/03 04:10,    0.2,    0.1,    0.3,    0.1,    0.1,  999.0,  999.0,  999.0,  999.0,  999.0,   -0.0,  999.0,    0.2,  999.0,    0.1,    0.1,    0.0,  999.0,   -0.1,  999.0,  999.0,    0.2,   -0.1,   -0.0,  999.0,   -0.1,  999.0,  999.0,   -0.1,   -0.0
2004/03/03 04:20,   -0.1,    0.1,   -0.2,   -0.4,   -0.0,    0.0,  999.0,  999.0,  999.0,  999.0,  999.0,    0.1,   -0.1,   -0.2,   -0.1,   -0.0,  999.0,    0.1,    0.0,  999.0,  999.0,    0.2,   -0.0,    0.3,    0.4,  999.0,  999.0,   -0.4,    0.0,    0.1
2004/03/03 04:30,    0.5,    0.1,  999.0,  999.0,   -0.3,  999.0,  999.0,  999.0,  999.0,  999.0,    0.4,   -0.2,   -0.1,   -0.3,   -0.0,   -0.0,  999.0,   -0.1,    0.1,   -0.0,    0.0,   -0.0,   -0.1,   -0.0,   -0.0,   -0.1,  999.0,   -0.2,   -0.4,   -0.1
2004/03/03 04:40,    0.4,  999.0,  999.0,  999.0,  999.0,  999.0,  999.0,  999.0,  999.0,  999.0,  999.0,   -0.1,    0.0,    0.1,    0.2,   -0.1,  999.0,    0.1,   -0.1,  999.0,  999.0,   -0.2,  999.0,    0.3,    0.0,  999.0,  999.0,  999.0,  999.0,    0.2
2004/03/03 04:50,  999.0,  999.0,  999.0,  999.0,  999.0,  999.0,  999.0,  999.0,  999.0,  999.0,  999.0,   -0.0,    0.1,    0.1,    0.3,    0.0,  999.0,  999.0,    0.1,  999.0,  999.0,  999.0,    0.2,  999.0,   -0.0,  999.0,  999.0,  999.0,    0.1,  999.0
2004/03/03 05:00,    0.2,    0.2,    0.1,   -0.3,  999.0,   -0.4,   -0.3,  999.0,  999.0,  999.0,  999.0,  999.0,    0.1,    0.1,   -0.1,   -0.1,  999.0,  999.0,   -0.1,  999.0,    0.0,   -0.0,    0.2,   -0.3,    0.2,  999.0,  999.0,  999.0,   -0.0,  999.0
2004/03/03 05:10,  999.0,   -0.1,   -0.1,    0.2,    0.8,  999.0,  999.0,  999.0,   -0.5,   -0.1,  999.0,  999.0,    0.3,    0.2,    0.3,    0.1,  999.0,   -0.0,    0.0,  999.0,  999.0,   -0.1,   -0.0,  999.0,   -0.0,    0.0,  999.0,  999.0,   -0.0,    0.3
2004/03/03 05:20,   -0.0,  999.0,    0.0,   -0.0,   -0.1,  999.0,  999.0,  999.0,  999.0,  999.0,  999.0,   -0.2,    0.0,   -0.0,  999.0,    0.1,   -0.1,   -0.1,   -0.0,    0.0,  999.0,   -0.1,    0.0,   -0.2,  999.0,  999.0,  999.0,  999.0,   -0.2,   -0.4
2004/03/03 05:30,    0.3,    0.2,    0.2,    0.1,    0.3,   -0.5,    0.4,  999.0,  999.0,  999.0,  999.0,  999.0,  999.0,    0.2,    0.3,    0.1,    0.5,    0.4,    0.0,   -0.1,    0.2,  999.0,    0.0,    0.2,  999.0,  999.0,  999.0,  999.0,    0.1,   -0.7
2004/03/03 05:40,   -1.0,   -1.2,   -0.6,   -1.0,   -0.8,   -0.3,  999.0,  999.0,  999.0,  999.0,  999.0,  999.0,  999.0,   -0.1,    0.0,    0.1,    0.0,   -0.0,  999.0,  999.0,    0.2,    0.5,    0.1,   -0.1,  999.0,  999.0,  999.0,  999.0,   -0.1,   -0.6
2004/03/03 05:50,    0.2,    0.1,    0.3,   -0.0,   -0.3,  999.0,   -0.5,  999.0,  999.0,  999.0,  999.0,  999.0,  999.0,  999.0,    0.1,    0.6,    0.2,   -0.1,  999.0,  999.0,  999.0,  999.0,   -0.1,    0.0,  999.0,  999.0,  999.0,  999.0,   -0.1,   -0.5
2004/03/03 06:00,   -0.1,   -0.1,    0.1,    0.1,  999.0,  999.0,  999.0,  999.0,  999.0,  999.0,  999.0,  999.0,  999.0,  999.0,    0.3,    0.0,    0.2,    0.1,    0.1,  999.0,  999.0,  999.0,    0.0,    0.2,  999.0,  999.0,  999.0,  999.0,   -0.0,  999.0
2004/03/03 06:10,   -0.3,  999.0,   -0.6,   -0.2,   -0.7,  999.0,  999.0,  999.0,  999.0,  999.0,  999.0,    0.1,   -0.0,   -0.1,    0.2,    0.2,    0.3,    0.3,    0.2,  999.0,  999.0,  999.0,    0.0,   -0.1,   -1.1,   -1.3,   -1.2,   -1.2,   -0.9,   -1.0
2004/03/03 06:20,   -1.2,   -1.5,   -1.2,   -1.0,   -0.9,   -0.8,   -0.4,   -0.5,  999.0,   -0.4,  999.0,  999.0,   -1.5,   -2.2,   -1.0,   -1.3,   -1.5,   -2.2,   -2.6,   -3.8,   -3.8,   -3.4,   -1.5,   -0.8,   -1.3,   -1.4,   -1.4,   -1.4,   -1.4,   -1.4
2004/03/03 06:30,   -2.0,   -1.8,   -1.5,   -1.3,   -1.1,   -0.9,   -1.3,   -2.9,   -2.8,   -3.7,   -3.5,   -3.3,   -3.3,   -2.8,   -1.1,   -1.6,   -1.5,   -1.9,   -2.4,   -2.1,   -1.9,   -1.2,   -1.3,   -0.6,   -0.6,   -0.9,   -1.1,   -1.2,   -1.1,   -1.1
2004/03/03 06:40,  999.0,   -2.4,   -2.6,   -2.7,   -3.0,  999.0,   -2.8,   -2.6,   -2.4,   -2.3,   -2.1,  999.0,  999.0,   -0.1,    0.0,   -0.3,    0.1,   -0.2,  999.0,  999.0,  999.0,   -1.3,   -1.2,   -1.2,   -1.4,   -1.3,   -1.4,   -1.3,   -1.2,   -1.2
2004/03/03 06:50,   -2.8,   -2.8,   -2.6,   -2.5,   -2.1,   -1.4,   -1.3,   -1.2,  999.0,  999.0,  999.0,   -4.1,   -4.1,   -1.9,   -3.0,   -3.9,   -2.7,   -2.8,   -2.9,   -3.6,   -3.7,   -2.7,   -1.6,   -1.3,   -1.3,   -1.4,   -1.4,   -1.4,   -1.5,   -1.4
2004/03/03 07:00,   -2.2,   -2.0,   -2.1,   -1.8,   -2.2,   -2.8,   -3.5,   -4.2,   -4.0,   -3.9,   -3.9,   -3.8,   -3.8,   -3.8,   -3.8,   -3.7,   -3.7,   -3.8,   -3.8,   -3.9,   -4.0,   -2.7,   -1.7,   -1.5,   -1.5,   -1.5,   -1.5,   -1.5,   -1.4,   -1.4
2004/03/03 07:10,   -3.0,   -3.1,   -3.4,   -3.7,   -4.0,   -4.2,   -4.2,   -4.1,   -4.0,   -4.0,   -4.0,   -4.0,   -4.0,   -4.0,   -3.9,   -3.9,   -3.9,   -4.1,   -4.2,   -4.2,   -4.1,   -2.6,   -1.7,   -1.5,   -1.6,   -1.5,   -1.5,   -1.4,   -1.3,   -1.3
2004/03/03 07:20,   -3.9,   -3.8,   -3.8,   -3.4,   -3.2,   -3.1,   -3.1,   -3.2,   -3.2,   -3.2,   -3.2,   -3.0,   -2.8,   -2.9,   -2.1,   -3.1,   -3.3,   -3.5,   -3.6,   -3.7,   -3.7,   -2.6,   -1.7,   -0.4,   -0.3,   -0.9,   -0.9,   -0.8,   -0.3,   -0.4
2004/03/03 07:30,   -2.6,   -2.4,   -2.4,   -2.4,   -2.2,   -2.1,   -2.4,   -2.5,   -2.6,   -2.4,  999.0,   -1.3,  999.0,   -0.5,    0.2,  999.0,  999.0,  999.0,   -0.0,  999.0,  999.0,  999.0,   -0.7,    0.3,   -0.1,   -0.6,   -0.9,   -1.1,   -0.5,   -0.7
2004/03/03 07:40,   -0.4,   -0.7,   -1.1,   -0.8,   -1.0,   -1.3,  999.0,  999.0,   -0.7,  999.0,  999.0,  999.0,  999.0,    0.1,   -0.1,   -0.1,   -0.4,   -0.2,  999.0,    0.0,    0.0,   -0.1,  999.0,   -0.0,    0.0,   -0.3,  999.0,  999.0,   -0.2,   -0.3
2004/03/03 07:50,   -0.3,   -0.3,   -0.1,   -0.5,   -0.1,  999.0,  999.0,   -0.3,  999.0,  999.0,  999.0,  999.0,    0.0,    0.1,    0.1,   -0.3,    0.1,   -0.0,    0.0,   -0.0,   -0.1,    0.0,    0.1,   -0.1,   -0.1,  999.0,  999.0,  999.0,   -0.0,    0.1
2004/03/03 08:00,   -0.7,   -0.6,   -0.8,   -0.6,   -0.4,  999.0,   -0.4,   -0.4,   -0.4,  999.0,  999.0,  999.0,    0.0,   -0.0,    0.0,  999.0,    0.1,   -0.0,   -0.0,    0.2,    0.0,   -0.0,  999.0,    0.1,    0.1,  999.0,  999.0,  999.0,    0.0,    0.1
2004/03/03 08:10,   -1.2,   -1.3,   -1.3,   -1.3,   -1.4,   -1.4,   -1.3,   -1.1,   -0.8,   -0.5,   -0.4,   -0.5,   -0.0,   -0.1,    0.0,   -0.1,    0.0,    0.0,   -0.1,    0.1,   -0.0,   -0.1,   -0.1,   -0.0,    0.1,  999.0,  999.0,  999.0,    0.1,   -0.0
2004/03/03 08:20,   -0.1,   -0.3,   -0.2,   -0.6,   -0.9,   -1.0,   -1.0,   -0.8,   -0.6,   -0.5,   -0.5,   -0.5,   -0.2,    0.1,   -0.0,   -0.1,    0.1,   -0.0,   -0.0,    0.1,    0.0,   -0.1,  999.0,    0.1,    0.1,   -0.1,  999.0,  999.0,  999.0,    0.0
2004/03/03 08:30,   -0.6,   -1.4,   -1.5,   -1.7,   -1.6,   -1.5,   -1.2,   -1.0,   -0.9,   -0.7,   -0.5,   -0.4,   -0.1,   -0.1,   -0.1,   -0.0,   -0.1,    0.2,   -0.1,    0.1,   -0.0,   -0.1,    0.1,   -0.0,    0.0,   -0.1,    0.3,  999.0,    0.0,   -0.1
2004/03/03 08:40,   -0.6,   -0.7,   -0.7,   -0.4,   -0.9,   -1.0,   -1.5,   -1.4,   -1.2,   -1.0,   -0.7,   -0.3,    0.0,    0.2,    0.1,  999.0,   -0.1,   -0.2,    0.1,  999.0,    0.0,   -0.0,    0.2,   -0.0,    0.0,  999.0,  999.0,  999.0,    0.1,   -0.0
2004/03/03 08:50,   -0.3,   -0.6,   -0.7,   -0.8,   -0.5,   -0.2,   -0.1,  999.0,   -1.2,   -0.7,   -0.7,   -0.4,   -0.0,   -0.1,    0.0,    0.2,    0.1,   -0.0,   -0.0,    0.1,   -0.1,    0.0,   -0.0,   -0.0,    0.1,   -0.1,  999.0,    0.3,   -0.1,    0.1
2004/03/03 09:00,    0.3,   -0.5,    0.0,  999.0,  999.0,   -0.4,   -0.6,   -0.7,   -0.8,   -1.0,   -1.0,   -0.3,   -0.3,   -0.0,    0.1,   -0.0,    0.1,   -0.1,   -0.1,    0.0,    0.1,    0.0,    0.2,    0.1,    0.0,  999.0,  999.0,  999.0,    0.0,   -0.1
2004/03/03 09:10,    0.1,   -0.5,  999.0,    0.2,    0.3,   -0.1,   -0.8,   -0.9,  999.0,  999.0,  999.0,  999.0,    0.2,   -0.0,   -0.1,    0.0,  999.0,   -0.1,    0.1,    0.2,   -0.0,    0.2,   -0.2,    0.3,   -0.0,    0.0,   -0.1,  999.0,   -0.0,    0.1
2004/03/03 09:20,    0.1,    0.0,    0.3,  999.0,  999.0,   -0.4,    0.1,  999.0,  999.0,  999.0,  999.0,  999.0,    0.1,    0.2,  999.0,   -0.2,  999.0,    0.1,    0.2,    0.3,  999.0,    0.2,    0.3,  999.0,    0.0,   -0.1,  999.0,  999.0,    0.1,    0.1
2004/03/03 09:30,    0.1,    0.3,   -0.3,   -0.4,   -0.0,  999.0,  999.0,  999.0,  999.0,  999.0,  999.0,  999.0,  999.0,    0.1,   -0.1,   -0.1,  999.0,    0.1,  999.0,  999.0,  999.0,   -0.1,   -0.1,  999.0,    0.1,  999.0,  999.0,  999.0,  999.0,  999.0
2004/03/03 09:40,    0.0,   -0.1,   -0.5,   -0.8,   -1.0,   -0.8,  999.0,  999.0,  999.0,  999.0,  999.0,  999.0,   -0.3,   -0.1,   -0.1,    0.1,  999.0,  999.0,   -0.1,  999.0,   -0.1,   -0.0,   -0.1,    0.1,    0.0,  999.0,  999.0,  999.0,  999.0,  999.0
2004/03/03 09:50,    0.1,   -0.5,   -0.6,   -0.3,  999.0,   -1.7,   -1.3,  999.0,  999.0,  999.0,  999.0,   -0.4,   -0.0,   -0.1,    0.2,   -0.2,  999.0,  999.0,    0.0,  999.0,   -0.2,   -0.4,   -0.0,    0.0,   -0.3,  999.0,  999.0,  999.0,  999.0,  999.0
2004/03/03 10:00,   -0.1,    0.2,   -0.2,   -0.1,  999.0,   -0.5,  999.0,  999.0,  999.0,  999.0,  999.0,  999.0,  999.0,  999.0,    0.1,  999.0,  999.0,  999.0,    0.0,  999.0,  999.0,  999.0,    0.1,    0.0,  999.0,  999.0,  999.0,  999.0,    0.0,  999.0
2004/03/03 10:10,    0.2,    0.3,    0.4,    0.4,  999.0,    0.4,  999.0,  999.0,  999.0,  999.0,  999.0,  999.0,  999.0,   -0.0,   -0.0,   -0.0,  999.0,    0.1,    0.2,  999.0,  999.0,   -0.3,    0.0,    0.0,   -0.1,  999.0,  999.0,   -0.3,  999.0,  999.0
2004/03/03 10:20,   -0.3,   -0.3,    0.1,  999.0,   -0.6,  999.0,    0.1,   -0.2,  999.0,  999.0,  999.0,  999.0,  999.0,  999.0,    0.1,   -0.1,  999.0,  999.0,    0.2,  999.0,  999.0,   -0.2,    0.4,    0.1,   -0.0,  999.0,  999.0,  999.0,    0.1,   -0.0
2004/03/03 10:30,  999.0,   -0.2,   -0.2,   -0.3,  999.0,  999.0,   -0.0,    0.0,  999.0,  999.0,  999.0,  999.0,  999.0,  999.0,    0.0,  999.0,  999.0,  999.0,  999.0,  999.0,  999.0,    0.2,   -0.1,    0.2,   -0.0,  999.0,  999.0,  999.0,  999.0,  999.0
2004/03/03 10:40,    0.3,    0.9,    0.3,   -0.1,  999.0,  999.0,   -0.1,   -0.4,  999.0,  999.0,  999.0,  999.0,  999.0,  999.0,   -0.1,   -0.0,  999.0,  999.0,   -0.2,  999.0,  999.0,  999.0,    0.1,    0.0,  999.0,  999.0,  999.0,  999.0,  999.0,  999.0
2004/03/03 10:50,    0.1,   -0.1,  999.0,  999.0,  999.0,  999.0,   -0.2,   -0.2,  999.0,  999.0,  999.0,  999.0,  999.0,   -0.1,   -0.1,  999.0,  999.0,  999.0,  999.0,  999.0,  999.0,   -0.0,    0.0,   -0.1,  999.0,  999.0,  999.0,  999.0,  999.0,  999.0
2004/03/03 11:00,   -0.1,   -0.1,   -0.4,   -0.5,  999.0,   -0.4,    0.0,   -0.1,  999.0,  999.0,  999.0,   -0.4,  999.0,    0.0,   -0.2,    0.1,   -0.2,  999.0,   -0.0,   -0.1,    0.2,  999.0,    0.0,    0.0,    0.0,  999.0,  999.0,  999.0,   -0.0,  999.0
2004/03/03 11:10,   -0.2,   -0.6,   -0.3,   -0.6,  999.0,   -0.4,   -0.4,   -0.4,  999.0,  999.0,  999.0,  999.0,   -0.2,    0.2,   -0.1,  999.0,    0.1,   -0.2,   -0.0,   -0.0,    0.1,   -0.1,    0.2,    0.1,  999.0,  999.0,  999.0,  999.0,    0.1,   -0.1
2004/03/03 11:20,   -2.0,   -1.6,   -1.2,   -1.0,   -0.7,   -0.2,   -0.4,   -0.3,   -0.2,  999.0,  999.0,  999.0,   -0.0,   -0.2,    0.1,    0.1,  999.0,   -0.0,    0.0,    0.2,    0.1,   -0.0,  999.0,  999.0,    0.1,  999.0,  999.0,  999.0,   -0.0,    0.0
2004/03/03 11:30,   -1.1,   -1.0,   -1.5,   -1.1,   -0.8,   -0.3,   -0.4,  999.0,   -0.3,   -0.3,  999.0,  999.0,    0.0,    0.0,    0.0,    0.0,   -0.0,   -0.0,    0.0,    0.0,    0.0,   -0.0,  999.0,  999.0,    0.0,  999.0,  999.0,  999.0,   -0.0,   -0.0
2004/03/03 11:40,    0.1,    0.0,   -0.0,   -0.1,   -0.7,   -0.1,  999.0,    0.4,   -0.3,  999.0,  999.0,  999.0,    0.3,    0.1,   -0.0,    0.2,   -0.0,    0.1,   -0.0,   -0.1,   -0.1,   -0.0,  999.0,  999.0,    0.0,  999.0,  999.0,  999.0,    0.1,    0.1
2004/03/03 11:50,    0.5,    0.2,   -0.0,    0.0,  999.0,  999.0,  999.0,    0.9,  999.0,    0.5,  999.0,  999.0,  999.0,    0.0,  999.0,    0.2,  999.0,    0.4,    0.0,    0.1,  999.0,    0.2,   -0.2,    0.2,    0.3,  999.0,  999.0,  999.0,    0.0,   -0.1
2004/03/03 12:00,   -0.2,   -0.2,   -0.2,   -0.1,    0.2,  999.0,    0.4,    0.3,    0.2,  999.0,  999.0,  999.0,   -0.0,   -0.1,   -0.1,  999.0,  999.0,   -0.0,    0.0,  999.0,    0.1,    0.1,  999.0,    0.0,    0.0,  999.0,  999.0,  999.0,   -0.1,    0.2
2004/03/03 12:10,   -0.4,   -0.2,   -0.3,   -0.3,   -0.3,   -0.2,    0.2,    0.5,    0.4,  999.0,  999.0,   -0.0,  999.0,   -0.0,   -0.0,    0.1,   -0.3,   -0.0,    0.0,   -0.0,   -0.0,  999.0,   -0.0,  999.0,    0.1,  999.0,  999.0,  999.0,   -0.1,    0.1
2004/03/03 12:20,    0.1,    0.0,   -0.5,    0.4,    0.1,   -0.2,  999.0,    0.1,    0.1,  999.0,  999.0,  999.0,   -0.1,    0.0,   -0.0,   -0.1,  999.0,    0.0,   -0.1,  999.0,    0.1,   -0.1,   -0.1,    0.1,    0.1,    0.1,  999.0,  999.0,    0.1,    0.0
2004/03/03 12:30,    0.2,    0.1,   -0.1,   -0.0,   -0.1,    0.3,    0.3,  999.0,    0.5,  999.0,  999.0,  999.0,  999.0,    0.0,    0.1,    0.1,  999.0,   -0.1,   -0.1,   -0.1,    0.1,   -0.0,    0.0,   -0.0,    0.1,  999.0,  999.0,  999.0,    0.0,   -0.1
2004/03/03 12:40,    0.1,    0.0,   -0.1,    0.1,  999.0,   -0.4,    0.0,  999.0,    0.4,    0.3,  999.0,  999.0,  999.0,   -0.1,    0.1,    0.2,   -0.2,   -0.2,   -0.4,   -0.5,   -0.5,   -0.0,   -0.3,   -0.1,    0.1,  999.0,  999.0,  999.0,   -0.0,   -0.1
2004/03/03 12:50,   -0.0,   -0.1,    0.4,    0.2,  999.0,    0.2,    0.4,  999.0,  999.0,    0.3,  999.0,  999.0,   -0.1,   -0.1,    0.0,    0.0,   -0.1,   -0.3,   -0.1,   -0.2,   -0.4,   -0.4,   -0.1,   -0.3,   -0.2,  999.0,  999.0,  999.0,  999.0,    0.1
2004/03/03 13:00,    0.1,    0.2,    0.1,    0.0,  999.0,  999.0,  999.0,  999.0,  999.0,    0.1,  999.0,  999.0,    0.1,    0.1,   -0.1,  999.0,   -0.1,    0.0,   -0.1,    0.0,    0.1,    0.0,    0.0,   -0.3,    0.1,  999.0,   -0.2,  999.0,    0.1,    0.0
2004/03/03 13:10,    0.2,   -0.1,   -0.1,    0.1,  999.0,  999.0,   -0.1,  999.0,  999.0,  999.0,  999.0,    0.1,    0.3,    0.1,    0.0,    0.1,   -0.2,   -0.1,   -0.1,   -0.0,   -0.0,   -0.1,    0.1,   -0.1,  999.0,    0.0,  999.0,  999.0,  999.0,    0.1
2004/03/03 13:20,    0.1,   -0.3,   -0.0,   -0.4,  999.0,   -0.7,  999.0,   -0.3,  999.0,  999.0,  999.0,   -0.1,   -0.0,    0.0,   -0.1,    0.1,  999.0,   -0.1,   -0.3,   -0.0,    0.1,    0.0,    0.1,    0.0,  999.0,  999.0,  999.0,  999.0,  999.0,   -0.1
2004/03/03 13:30,    0.7,    0.0,   -0.3,   -0.2,    1.4,  999.0,   -0.2,  999.0,    0.1,   -0.3,  999.0,   -0.2,   -0.1,   -0.0,   -0.1,    0.1,  999.0,   -0.1,   -0.0,    0.0,    0.0,    0.2,   -0.0,   -0.2,    0.1,    0.0,  999.0,  999.0,  999.0,   -0.3
2004/03/03 13:40,    0.5,   -0.0,   -0.3,   -0.2,    0.4,    0.2,  999.0,  999.0,   -0.4,    0.2,   -0.1,   -0.1,   -0.1,    0.0,    0.0,    0.1,  999.0,   -0.1,    0.0,    0.1,    0.0,    0.0,  999.0,  999.0,  999.0,    0.1,  999.0,  999.0,  999.0,  999.0
2004/03/03 13:50,    0.4,    0.3,    0.1,    0.1,    0.1,   -0.5,    0.2,    0.0,  999.0,  999.0,  999.0,   -0.0,   -0.1,    0.1,   -0.1,    0.1,  999.0,   -0.1,   -0.1,    0.2,    0.1,    0.0,  999.0,    0.0,   -0.1,  999.0,  999.0,  999.0,  999.0,  999.0
2004/03/03 14:00,    0.0,   -0.2,   -0.1,   -0.6,   -0.9,   -1.0,   -0.4,   -0.3,  999.0,  999.0,  999.0,    0.1,    0.2,    0.0,    0.1,   -0.0,   -0.0,  999.0,    0.4,   -0.0,    0.1,  999.0,   -0.1,    0.1,   -0.3,  999.0,  999.0,  999.0,  999.0,   -0.1
2004/03/03 14:10,    0.1,   -0.1,    0.1,    0.0,   -0.1,   -0.2,   -0.2,   -0.2,  999.0,  999.0,  999.0,  999.0,    0.2,    0.0,   -0.0,    0.0,  999.0,  999.0,    0.0,    0.0,   -0.1,   -0.0,  999.0,   -0.1,    0.1,  999.0,  999.0,  999.0,    0.1,   -0.1
2004/03/03 14:20,   -0.2,   -0.0,   -0.2,   -0.1,   -0.2,   -0.3,   -0.0,   -0.2,  999.0,    0.0,  999.0,   -0.3,    0.1,    0.1,    0.1,    0.2,  999.0,  999.0,    0.0,   -0.1,   -0.1,    0.2,    0.1,    0.1,  999.0,  999.0,  999.0,  999.0,    0.1,   -0.0
2004/03/03 14:30,    0.0,   -0.1,   -0.1,    0.3,    0.4,   -0.2,   -0.2,   -0.1,    0.0,  999.0,  999.0,  999.0,    0.4,    0.0,   -0.1,   -0.1,  999.0,   -0.0,   -0.1,    0.0,   -0.1,    0.1,   -0.1,    0.1,    0.0,  999.0,  999.0,  999.0,    0.0,   -0.4
2004/03/03 14:40,   -0.1,   -0.1,   -0.1,   -0.1,   -0.2,   -0.3,   -0.3,   -0.1,    0.0,   -0.5,  999.0,  999.0,  999.0,    0.1,    0.1,    0.0,  999.0,    0.0,   -0.2,    0.1,  999.0,   -0.1,    0.0,  999.0,  999.0,  999.0,  999.0,  999.0,   -0.0,   -0.1
2004/03/03 14:50,   -0.1,   -0.3,   -0.2,   -0.1,   -0.1,   -0.4,   -0.1,    0.1,   -0.0,  999.0,  999.0,  999.0,  999.0,   -0.0,   -0.0,    0.2,  999.0,    0.0,   -0.0,    0.1,  999.0,    0.0,    0.1,   -0.1,  999.0,  999.0,  999.0,  999.0,  999.0,  999.0
2004/03/03 15:00,   -0.2,   -0.3,   -0.5,   -0.2,   -0.5,   -0.1,   -0.0,   -0.0,   -0.3,  999.0,  999.0,  999.0,  999.0,  999.0,    0.0,   -0.4,  999.0,   -0.2,   -0.2,   -0.1,   -0.2,   -0.0,   -0.1,    0.1,  999.0,  999.0,  999.0,  999.0,    0.2,  999.0
2004/03/03 15:10,    0.1,   -0.1,    0.1,  999.0,  999.0,  999.0,  999.0,  999.0,    0.2,   -0.7,  999.0,  999.0,  999.0,   -0.4,    0.2,    0.0,  999.0,  999.0,  999.0,    0.0,  999.0,  999.0,   -0.0,   -0.2,  999.0,  999.0,  999.0,  999.0,  999.0,  999.0
2004/03/03 15:20,    0.1,    0.3,   -0.8,  999.0,  999.0,  999.0,    0.4,    0.3,    0.1,  999.0,  999.0,  999.0,  999.0,    0.1,    0.1,   -0.1,  999.0,  999.0,  999.0,    0.3,    0.0,   -0.1,    0.1,    0.0,  999.0,  999.0,  999.0,  999.0,  999.0,  999.0
2004/03/03 15:30,   -0.1,   -0.2,   -1.2,   -0.0,  999.0,  999.0,    0.3,   -0.0,  999.0,   -0.3,  999.0,  999.0,  999.0,  999.0,    0.0,    0.1,  999.0,    0.1,   -0.1,   -0.0,  999.0,   -0.0,    0.0,    0.1,    0.0,  999.0,  999.0,  999.0,  999.0,  999.0
2004/03/03 15:40,   -0.1,   -0.2,   -0.2,    0.5,  999.0,  999.0,   -0.1,   -0.1,   -0.1,   -0.5,  999.0,  999.0,  999.0,   -0.7,   -0.8,   -0.6,   -0.7,   -0.5,   -0.2,   -0.1,    0.2,  999.0,    0.1,    0.0,   -0.1,  999.0,  999.0,  999.0,  999.0,  999.0
2004/03/03 15:50,    0.1,   -0.2,   -0.2,   -0.8,  999.0,   -0.4,   -0.4,   -0.2,   -0.8,   -0.2,  999.0,  999.0,  999.0,   -0.5,   -0.4,   -1.1,   -0.9,   -0.8,   -0.4,   -0.3,    0.0,    0.1,   -0.0,    0.2,  999.0,  999.0,  999.0,  999.0,  999.0,  999.0
2004/03/03 16:00,   -0.0,   -0.2,   -1.9,   -1.1,   -1.7,   -1.1,   -0.8,   -0.3,   -0.8,   -1.2,   -1.8,   -1.8,   -1.9,   -1.7,   -1.5,   -1.3,   -1.0,   -0.8,   -0.5,   -0.5,   -0.3,   -0.2,    0.0,   -0.0,  999.0,  999.0,  999.0,  999.0,  999.0,  999.0
2004/03/03 16:10,    0.4,    0.0,   -0.6,   -1.7,   -0.8,   -1.2,   -1.5,   -0.8,   -1.0,   -1.0,   -0.9,   -0.9,   -1.1,   -1.1,   -0.6,   -0.8,   -0.7,   -0.6,   -0.5,   -0.2,   -0.2,   -0.0,    0.1,   -0.0,  999.0,  999.0,  999.0,  999.0,  999.0,  999.0
2004/03/03 16:20,   -0.0,   -0.2,   -0.4,  999.0,  999.0,  999.0,   -0.1,   -0.2,   -0.9,   -0.6,   -0.8,   -0.8,   -0.8,   -0.7,   -0.2,   -0.1,  999.0,    0.1,   -0.1,   -0.0,   -0.1,   -0.1,   -0.1,  999.0,  999.0,  999.0,  999.0,  999.0,  999.0,  999.0
2004/03/03 16:30,    0.2,    0.1,    0.1,   -0.4,  999.0,  999.0,   -0.2,  999.0,  999.0,  999.0,  999.0,  999.0,   -0.3,   -0.7,   -0.1,   -0.4,  999.0,   -0.3,   -0.1,  999.0,   -0.0,   -0.0,    0.0,  999.0,  999.0,  999.0,  999.0,  999.0,  999.0,  999.0
2004/03/03 16:40,   -0.0,   -0.0,    0.0,   -0.5,  999.0,   -0.4,   -0.1,   -0.1,  999.0,   -1.1,   -0.9,   -1.1,   -1.3,   -1.3,   -0.7,   -1.0,   -0.8,   -0.4,   -0.4,  999.0,  999.0,    0.2,    0.0,    0.0,  999.0,  999.0,  999.0,  999.0,  999.0,  999.0
2004/03/03 16:50,    0.1,    0.1,    0.2,    0.3,    0.3,  999.0,   -0.0,   -0.4,   -0.3,  999.0,  999.0,  999.0,  999.0,   -0.0,    0.0,   -0.1,   -0.4,   -0.3,    0.0,    0.0,   -0.0,    0.1,    0.1,    0.1,  999.0,  999.0,  999.0,  999.0,  999.0,  999.0
2004/03/03 17:00,    0.2,    0.5,    0.4,    0.1,    0.2,   -0.1,    0.1,    0.2,    0.3,  999.0,  999.0,   -0.1,   -0.4,   -0.2,   -0.1,   -0.1,   -0.4,   -0.4,   -0.3,    0.0,    0.1,   -0.0,    0.1,    0.1,  999.0,  999.0,  999.0,  999.0,  999.0,  999.0
2004/03/03 17:10,    0.4,    0.3,    0.1,    0.1,   -0.2,   -0.2,   -0.2,   -0.3,   -0.3,  999.0,  999.0,   -0.2,   -0.0,   -0.1,   -0.0,    0.1,   -0.2,   -0.0,   -0.1,   -0.1,   -0.1,   -0.1,    0.2,   -0.1,    0.1,  999.0,  999.0,  999.0,  999.0,  999.0
2004/03/03 17:20,    0.3,    0.2,    0.2,    0.1,   -0.0,    0.1,    0.3,   -0.0,  999.0,  999.0,  999.0,   -0.1,   -0.1,  999.0,   -0.1,   -0.0,  999.0,   -0.0,    0.2,   -0.1,    0.2,    0.0,  999.0,    0.0,  999.0,  999.0,  999.0,  999.0,  999.0,  999.0
2004/03/03 17:30,    0.2,    0.2,    0.2,    0.0,   -0.2,   -0.2,  999.0,  999.0,  999.0,   -0.2,  999.0,  999.0,    0.2,    0.1,    0.0,    0.1,  999.0,  999.0,    0.2,  999.0,  999.0,    0.1,   -0.1,    0.0,  999.0,  999.0,  999.0,  999.0,  999.0,  999.0
2004/03/03 17:40,    0.2,    0.0,    0.3,   -0.0,   -0.3,   -0.2,  999.0,   -0.5,   -0.3,   -0.3,  999.0,  999.0,  999.0,  999.0,    0.1,  999.0,   -0.2,  999.0,    0.1,  999.0,  999.0,  999.0,   -0.2,    0.0,  999.0,  999.0,  999.0,  999.0,  999.0,  999.0
2004/03/03 17:50,    0.4,    0.4,    0.3,   -0.0,   -0.1,   -0.2,  999.0,   -0.4,   -0.4,   -0.4,  999.0,  999.0,   -0.2,   -0.1,   -0.0,   -0.1,   -0.3,    0.0,  999.0,  999.0,  999.0,  999.0,   -0.2,    0.0,  999.0,  999.0,  999.0,  999.0,  999.0,  999.0
2004/03/03 18:00,    0.4,    0.3,    0.5,    0.2,   -0.2,  999.0,    0.1,   -0.1,   -0.0,   -0.1,  999.0,  999.0,   -0.3,   -0.1,    0.1,    0.1,  999.0,  999.0,  999.0,  999.0,  999.0,    0.0,  999.0,    0.4,  999.0,  999.0,  999.0,  999.0,  999.0,  999.0
2004/03/03 18:10,    0.3,    0.3,    0.4,    0.6,   -0.3,   -0.0,    0.2,    0.2,    0.3,  999.0,  999.0,  999.0,   -0.4,    0.0,    0.1,    0.4,  999.0,    0.3,  999.0,   -0.0,    0.2,  999.0,    0.0,   -0.0,  999.0,  999.0,  999.0,  999.0,  999.0,  999.0
2004/03/03 18:20,    0.4,   -0.0,    0.3,  999.0,   -0.3,    0.1,   -0.2,  999.0,    0.4,    0.2,  999.0,  999.0,  999.0,    0.0,   -0.0,  999.0,  999.0,  999.0,  999.0,    0.1,  999.0,  999.0,  999.0,   -0.1,  999.0,  999.0,  999.0,  999.0,  999.0,  999.0
2004/03/03 18:30,    0.6,    0.3,    0.1,   -0.3,   -0.2,   -0.2,  999.0,  999.0,   -0.4,    0.0,    0.0,    0.1,  999.0,  999.0,   -0.0,  999.0,  999.0,  999.0,  999.0,  999.0,  999.0,  999.0,   -0.0,  999.0,  999.0,  999.0,  999.0,  999.0,  999.0,  999.0
2004/03/03 18:40,    0.4,   -0.0,    0.2,   -0.3,   -0.5,   -0.5,  999.0,  999.0,   -0.0,    0.1,  999.0,  999.0,  999.0,   -0.3,    0.1,  999.0,  999.0,  999.0,  999.0,  999.0,    0.3,  999.0,   -0.1,    0.2,  999.0,  999.0,  999.0,  999.0,  999.0,  999.0
2004/03/03 18:50,    0.6,    0.6,    0.3,    0.3,    0.5,   -0.1,    0.9,    0.3,  999.0,   -0.2,  999.0,  999.0,  999.0,   -0.2,   -0.2,  999.0,  999.0,  999.0,   -0.1,    0.1,    0.2,  999.0,   -0.3,    0.1,  999.0,  999.0,  999.0,  999.0,  999.0,  999.0
2004/03/03 19:00,    0.0,    0.8,    1.6,  999.0,  999.0,    1.4,    1.4,    1.4,  999.0,  999.0,    1.0,  999.0,  999.0,   -0.2,    0.1,  999.0,  999.0,  999.0,  999.0,   -0.1,  999.0,  999.0,    0.0,   -0.1,  999.0,  999.0,  999.0,  999.0,  999.0,  999.0
2004/03/03 19:10,    0.2,    0.5,    0.4,    0.1,   -0.2,    0.3,   -0.1,   -0.2,   -0.6,    0.1,  999.0,  999.0,  999.0,   -0.1,   -0.1,  999.0,  999.0,  999.0,  999.0,  999.0,  999.0,  999.0,  999.0,  999.0,  999.0,  999.0,  999.0,  999.0,  999.0,  999.0
2004/03/03 19:20,    0.5,    0.3,    0.4,    0.4,    0.3,    0.4,   -0.2,    0.2,    0.1,    0.1,  999.0,  999.0,   -0.4,  999.0,    0.1,  999.0,  999.0,  999.0,  999.0,  999.0,  999.0,  999.0,  999.0,   -0.0,  999.0,  999.0,  999.0,  999.0,  999.0,  999.0
2004/03/03 19:30,    0.5,    0.6,    0.5,    0.2,   -0.0,   -0.3,    0.2,    0.2,    0.1,   -0.3,  999.0,   -0.3,  999.0,  999.0,    0.1,  999.0,  999.0,  999.0,  999.0,  999.0,  999.0,  999.0,  999.0,   -0.1,  999.0,  999.0,  999.0,  999.0,  999.0,  999.0
2004/03/03 19:40,    0.6,    0.8,    0.1,    0.3,    0.2,   -0.3,    1.5,    0.1,  999.0,    0.4,  999.0,  999.0,  999.0,  999.0,    0.0,  999.0,  999.0,   -0.1,  999.0,  999.0,  999.0,    0.3,  999.0,   -0.1,  999.0,  999.0,  999.0,  999.0,  999.0,  999.0
2004/03/03 19:50,    0.5,    0.8,    0.1,    0.2,    0.5,   -0.1,    0.1,   -0.1,    0.3,    0.3,  999.0,    0.0,  999.0,  999.0,   -0.1,  999.0,  999.0,  999.0,  999.0,  999.0,  999.0,  999.0,   -0.2,  999.0,  999.0,  999.0,  999.0,  999.0,  999.0,  999.0
2004/03/03 20:00,    0.4,    0.8,    0.4,    0.4,  999.0,    0.1,    0.4,    0.2,    0.4,    0.6,    0.2,  999.0,  999.0,  999.0,   -0.4,  999.0,  999.0,  999.0,  999.0,  999.0,  999.0,  999.0,  999.0,  999.0,  999.0,  999.0,  999.0,  999.0,  999.0,  999.0
2004/03/03 20:10,    0.6,    0.2,    0.3,    0.7,  999.0,    0.3,    0.2,    0.3,    0.0,   -0.2,  999.0,  999.0,  999.0,  999.0,   -0.1,    0.1,  999.0,  999.0,  999.0,  999.0,  999.0,   -0.0,    0.1,   -0.0,  999.0,  999.0,  999.0,  999.0,  999.0,  999.0
2004/03/03 20:20,    0.6,    0.4,    0.3,    0.2,    0.2,    0.3,    0.1,    0.0,    0.0,   -0.4,   -0.3,   -0.2,  999.0,    0.0,    0.1,    0.1,  999.0,  999.0,  999.0,  999.0,  999.0,   -0.0,  999.0,    0.4,   -0.1,  999.0,  999.0,  999.0,  999.0,  999.0
2004/03/03 20:30,    0.0,   -0.1,    0.3,    0.1,    0.1,   -0.2,   -0.0,   -0.4,   -0.4,   -0.2,   -0.1,   -0.0,    0.2,   -0.1,    0.0,  999.0,  999.0,   -0.0,  999.0,   -0.1,  999.0,    0.1,    0.1,   -0.0,  999.0,  999.0,  999.0,  999.0,  999.0,  999.0
2004/03/03 20:40,    0.1,   -0.1,   -0.1,    0.0,    0.1,   -0.1,   -0.2,   -0.0,    0.1,  999.0,    0.2,    0.1,   -0.0,   -0.1,    0.1,  999.0,  999.0,  999.0,    0.1,  999.0,   -0.1,    0.1,    0.1,   -0.1,  999.0,  999.0,  999.0,  999.0,  999.0,  999.0
2004/03/03 20:50,    0.8,    0.5,    0.5,   -0.0,    0.5,    0.2,    0.0,   -0.0,    0.1,  999.0,  999.0,    0.4,   -0.2,    0.2,    0.0,    0.1,  999.0,  999.0,  999.0,  999.0,  999.0,    0.0,    0.0,    0.2,   -0.0,  999.0,  999.0,  999.0,  999.0,  999.0
2004/03/03 21:00,    0.5,    0.5,    0.7,    0.2,   -0.4,   -0.2,   -0.4,   -0.3,    0.0,  999.0,  999.0,   -0.2,  999.0,    0.4,   -0.1,    0.1,  999.0,  999.0,  999.0,  999.0,  999.0,    0.0,   -0.1,  999.0,  999.0,  999.0,  999.0,  999.0,  999.0,   -0.1
2004/03/03 21:10,    0.3,    0.3,    0.4,   -0.3,   -0.8,   -0.5,   -0.6,   -0.4,   -0.3,   -0.2,  999.0,   -0.2,    0.1,    0.0,    0.1,   -0.0,   -0.3,    0.1,   -0.1,    0.1,  999.0,  999.0,    0.0,   -0.2,  999.0,    0.1,  999.0,  999.0,    0.2,  999.0
2004/03/03 21:20,    0.4,    0.5,    0.4,    0.1,   -0.1,   -0.1,    0.0,   -0.2,    0.1,   -0.2,   -0.4,  999.0,   -0.0,   -0.0,    0.0,    0.1,    0.7,   -0.1,    0.1,  999.0,   -0.2,    0.0,  999.0,    0.0,  999.0,  999.0,  999.0,  999.0,  999.0,  999.0
2004/03/03 21:30,    0.5,    0.6,    0.3,   -0.1,    0.0,   -0.1,    0.1,    0.1,   -0.3,   -0.5,   -0.3,  999.0,    0.4,   -0.0,    0.1,   -0.1,  999.0,  999.0,    0.1,    0.1,  999.0,    0.0,   -0.1,   -0.2,  999.0,  999.0,  999.0,  999.0,  999.0,  999.0
2004/03/03 21:40,    0.2,    0.4,    0.2,    0.3,   -0.0,    0.1,  999.0,    0.1,   -0.1,    0.0,    0.1,   -0.1,   -0.5,  999.0,    0.1,  999.0,  999.0,  999.0,  999.0,  999.0,    0.1,  999.0,    0.1,   -0.0,  999.0,  999.0,  999.0,  999.0,  999.0,  999.0
2004/03/03 21:50,   -0.3,   -0.3,   -0.6,   -0.9,   -0.8,   -0.7,   -0.5,   -0.3,   -0.1,    0.0,    0.0,  999.0,  999.0,  999.0,    0.0,  999.0,  999.0,  999.0,  999.0,  999.0,  999.0,  999.0,    0.1,   -0.0,  999.0,  999.0,  999.0,  999.0,  999.0,  999.0
2004/03/03 22:00,   -2.6,   -2.5,   -2.3,   -1.9,   -1.6,   -1.3,   -0.9,   -0.6,   -0.3,   -0.1,   -0.2,  999.0,  999.0,  999.0,   -0.1,  999.0,  999.0,  999.0,  999.0,  999.0,  999.0,  999.0,    0.1,    0.0,  999.0,  999.0,  999.0,  999.0,  999.0,  999.0
2004/03/03 22:10,   -2.0,   -1.8,   -1.5,   -1.4,   -1.2,   -0.9,   -0.6,   -0.4,   -0.4,  999.0,  999.0,    0.1,   -0.1,    0.0,   -0.0,   -0.0,  999.0,  999.0,   -0.4,  999.0,    0.3,  999.0,    0.0,    0.1,    0.1,  999.0,  999.0,  999.0,    0.0,  999.0
2004/03/03 22:20,   -1.6,   -1.7,   -1.5,   -1.7,   -1.2,   -0.9,   -0.8,   -0.4,   -0.7,   -0.5,   -0.3,   -0.1,   -0.1,    0.2,    0.1,    0.1,  999.0,  999.0,  999.0,  999.0,   -0.1,   -0.2,  999.0,  999.0,  999.0,  999.0,  999.0,  999.0,   -0.0,    0.1
2004/03/03 22:30,   -1.7,   -1.9,   -1.9,   -1.6,   -1.3,   -1.1,   -0.9,   -0.5,   -0.3,    0.1,  999.0,    0.0,    0.2,    0.2,    0.1,   -0.2,  999.0,  999.0,  999.0,    0.1,  999.0,  999.0,    0.1,  999.0,   -0.1,  999.0,  999.0,  999.0,   -0.0,   -0.1
2004/03/03 22:40,   -2.3,   -2.1,   -2.1,   -1.6,   -1.5,   -1.0,   -0.8,   -0.7,   -0.4,   -0.2,  999.0,  999.0,   -0.1,    0.1,    0.1,    0.1,  999.0,  999.0,   -0.0,  999.0,  999.0,   -0.2,    0.2,    0.1,    0.0,  999.0,  999.0,  999.0,  999.0,    0.1
2004/03/03 22:50,   -2.0,   -1.8,   -1.7,   -1.7,   -1.6,   -1.3,   -1.0,   -0.7,   -0.6,   -0.5,   -0.4,  999.0,  999.0,   -0.2,   -0.0,    0.5,  999.0,  999.0,  999.0,  999.0,  999.0,    0.1,   -0.0,  999.0,    0.3,    0.0,  999.0,  999.0,  999.0,   -0.1
2004/03/03 23:00,   -1.9,   -1.6,   -1.7,   -1.7,   -1.7,   -1.5,   -1.4,   -1.2,   -0.9,   -0.7,   -0.4,   -0.3,   -0.1,    0.1,    0.0,   -0.2,    0.6,  999.0,   -0.1,    0.0,  999.0,    0.4,   -0.1,   -0.0,   -0.3,  999.0,  999.0,  999.0,   -0.2,  999.0
2004/03/03 23:10,   -1.6,   -1.7,   -1.6,   -1.5,   -1.3,   -1.3,   -1.2,   -1.0,   -0.8,   -0.5,   -0.2,   -0.1,   -0.0,   -0.0,   -0.0,   -0.1,  999.0,  999.0,   -0.1,    0.1,  999.0,   -0.0,  999.0,    0.0,   -0.0,  999.0,  999.0,  999.0,   -0.7,   -0.8
2004/03/03 23:20,   -1.6,   -1.6,   -1.5,   -1.4,   -1.2,   -1.2,   -1.3,   -1.2,   -1.1,   -0.7,  999.0,   -0.3,  999.0,    0.0,    0.0,  999.0,  999.0,  999.0,    0.0,  999.0,  999.0,  999.0,    0.0,   -0.1,    0.1,  999.0,  999.0,   -0.6,   -0.7,   -0.4
2004/03/03 23:30,   -1.6,   -1.5,   -1.6,   -1.1,   -0.6,   -0.5,   -0.5,  999.0,  999.0,  999.0,  999.0,  999.0,   -0.2,   -0.5,   -0.1,   -0.2,  999.0,  999.0,  999.0,  999.0,  999.0,   -0.2,    0.2,    0.1,  999.0,  999.0,  999.0,  999.0,  999.0,    0.1
2004/03/03 23:40,   -1.5,   -1.5,   -1.6,   -1.4,   -1.0,   -1.0,   -1.0,   -1.0,  999.0,  999.0,  999.0,  999.0,    0.1,   -0.5,   -0.0,   -0.1,  999.0,    0.1,    0.1,  999.0,  999.0,   -0.0,    0.2,  999.0,    0.1,    0.0,  999.0,  999.0,    0.0,   -0.1
2004/03/03 23:50,   -0.9,   -1.1,   -0.8,   -1.0,   -0.8,   -0.8,   -0.8,   -0.7,   -0.4,   -0.5,  999.0,    0.1,   -0.0,    0.1,    0.1,  999.0,  999.0,   -0.1,  999.0,  999.0,    0.0,   -0.1,  999.0,    0.2,   -0.1,    0.2,  999.0,  999.0,    0.1,    0.1
